Location: Austin
(30.3000°N, 97.7500°W)
Time: 03:29:29
(UTC-06:00)

Cosmos 1634 Rocket - Pass Details

Date: 20 November 2023
Orbit: 959 x 991 km, 82.9° (Epoch: 04 December)

Event Time Altitude Azimuth Distance (km) Brightness Sun altitude
Rises 18:56:15 0° 353° (N) 3,679 7.0 -18.1°
Reaches altitude 10° 18:58:46 10° 354° (N) 2,733 6.3 -18.6°
Maximum altitude 19:05:03 87° 266° (W) 990 4.0 -19.9°
Drops below altitude 10° 19:11:20 10° 178° (S) 2,738 6.4 -21.3°
Sets 19:13:51 0° 177° (S) 3,686 7.1 -21.8°
